Location: Invercargill
(46.4000°S, 168.3500°E)
Time: 22:04:25
(UTC+13:00)

Transit 4A - Visible Passes

Search period start: 14 October 2019 00:00
Search period end: 24 October 2019 00:00
Orbit: 866 x 978 km, 66.8° (Epoch: 13 October)

Date Brightness Start Highest point End Pass type
(mag) Time Alt. Az. Time Alt. Az. Time Alt. Az.
14 Oct 10.9 00:01:27 10° SSW 00:03:04 11° S 00:04:44 10° S visible
14 Oct 10.7 01:49:19 10° S 01:52:27 14° SSE 01:55:36 10° SE visible
14 Oct 9.3 03:34:56 10° SSW 03:40:42 38° SE 03:46:34 10° ENE visible
14 Oct 8.1 05:21:15 10° SW 05:27:17 51° WNW 05:33:25 10° N visible
14 Oct 10.5 22:19:52 10° WSW 22:23:59 19° SSW 22:28:12 10° SSE visible
15 Oct 10.9 00:11:54 10° SSW 00:13:06 11° S 00:14:18 10° S visible
15 Oct 10.5 01:58:30 10° SSW 02:02:20 17° SSE 02:06:13 10° ESE visible
15 Oct 8.8 03:44:10 10° SSW 03:50:14 50° SE 03:56:24 10° NE visible
15 Oct 8.5 05:30:50 10° SW 05:36:29 36° WNW 05:42:11 10° N visible
15 Oct 9.1 20:40:11 10° WNW 20:45:51 47° SW 20:51:41 10° SSE visible
15 Oct 10.6 22:30:21 10° WSW 22:33:50 16° SSW 22:37:23 10° SSE visible
16 Oct 10.8 00:21:47 10° S 00:23:08 11° S 00:24:28 10° SSE visible
16 Oct 10.2 02:07:41 10° SSW 02:12:10 20° SSE 02:16:43 10° ESE visible
16 Oct 8.2 03:53:28 10° SSW 03:59:42 68° SE 04:06:03 10° NE visible
16 Oct 8.9 05:40:36 10° SW 05:45:36 25° WNW 05:50:38 10° NNW visible
16 Oct 9.6 20:50:01 10° WNW 20:55:24 35° SW 21:00:56 10° SSE visible
16 Oct 10.7 22:40:56 10° SW 22:43:44 13° SSW 22:46:35 10° S visible
17 Oct 10.8 00:31:12 10° S 00:33:07 11° S 00:35:05 10° SSE visible
17 Oct 9.9 02:16:51 10° SSW 02:21:54 25° SE 02:27:03 10° E visible
17 Oct 7.9 04:02:47 10° SW 04:09:05 88° WNW 04:15:29 10° NNE visible
17 Oct 9.3 05:50:45 10° WSW 05:54:38 17° WNW 05:58:34 10° NW visible
17 Oct 10.1 21:00:03 10° W 21:05:02 27° SW 21:10:10 10° SSE visible
17 Oct 10.7 22:51:36 10° SSW 22:53:42 12° SSW 22:55:49 10° S visible
18 Oct 10.6 00:40:26 10° S 00:43:06 13° SSE 00:45:48 10° SE visible
18 Oct 9.5 02:26:03 10° SSW 02:31:35 32° SE 02:37:12 10° ENE visible
18 Oct 7.9 04:12:12 10° SW 04:18:24 64° WNW 04:23:51 14° NNE visible
18 Oct 9.6 06:01:59 10° W 06:03:36 11° W 06:05:15 10° WNW visible
18 Oct 10.4 21:10:15 10° W 21:14:45 22° SSW 21:19:21 10° SSE visible
18 Oct 10.8 23:02:12 10° SSW 23:03:42 11° S 23:05:13 10° S visible
19 Oct 10.5 00:49:38 10° SSW 00:53:02 15° SSE 00:56:29 10° SE visible
19 Oct 9.0 02:35:16 10° SSW 02:41:10 42° SE 02:45:41 17° ENE visible
19 Oct 8.2 04:21:42 10° SW 04:27:38 45° WNW 04:29:02 39° NNW visible
19 Oct 10.5 21:20:37 10° WSW 21:24:33 18° SSW 21:28:33 10° SSE visible
19 Oct 10.8 23:12:29 10° SSW 23:13:43 11° S 23:14:59 10° SSE visible
20 Oct 10.3 00:58:48 10° SSW 01:02:54 18° SSE 01:07:04 10° ESE visible
20 Oct 8.5 02:44:31 10° SSW 02:50:41 56° SE 02:53:01 37° ENE visible
20 Oct 8.7 04:31:21 10° SW 04:36:25 32° WNW 04:36:25 32° WNW visible
20 Oct 10.5 21:31:08 10° SW 21:34:24 15° SSW 21:37:44 10° SSE visible
20 Oct 10.7 23:22:10 10° S 23:23:44 11° S 23:25:20 10° SSE visible
21 Oct 10.0 01:07:59 10° SSW 01:12:43 22° SSE 01:17:30 10° E visible
21 Oct 8.0 02:53:50 10° SSW 03:00:07 76° SE 03:00:57 66° ENE visible
21 Oct 9.3 04:41:13 10° WSW 04:44:23 20° W 04:44:23 20° W visible
21 Oct 10.6 21:41:46 10° SW 21:44:21 13° SSW 21:46:57 10° S visible
21 Oct 10.6 23:31:31 10° S 23:33:45 12° SSE 23:36:00 10° SE visible
22 Oct 9.6 01:17:10 10° SSW 01:22:25 27° SE 01:25:44 18° E visible
22 Oct 7.8 03:03:11 10° SW 03:09:12 77° W 03:09:12 77° W visible
22 Oct 9.8 04:51:34 10° WSW 04:52:39 12° W 04:52:39 12° W visible
22 Oct 10.6 21:52:25 10° SSW 21:54:19 11° S 21:56:14 10° S visible
22 Oct 10.4 23:40:44 10° S 23:43:43 14° SSE 23:46:43 10° SE visible
23 Oct 9.2 01:26:23 10° SSW 01:32:05 35° SE 01:34:09 28° E visible
23 Oct 8.3 03:12:37 10° SW 03:17:37 50° WSW 03:17:37 50° WSW visible
23 Oct 10.6 22:02:56 10° SSW 22:04:20 11° S 22:05:44 10° S visible
23 Oct 10.3 23:49:56 10° SSW 23:53:38 16° SSE 23:57:22 10° ESE visible
